sat.trackr.live / text

‹ back to catalog

STARLINK-33922

NORAD 63698 · 2025-087B

PAYLOAD ACTIVE UNKNOWN

§ Identity

Operator
Country
US
Launch date
2025-04-28
Launch site
AFWTR
Launch vehicle
Mass (kg)
RCS (m²)

Purposes: comms

External: N2YO · Heavens-Above · Gunter

§ Orbital elements

Epoch: 2026-05-24T21:58:27.700896Z

Period
94.10 min
Inclination
53.1565°
Eccentricity
0.0000899
Mean motion
15.30208531 rev/d
Perigee alt
474.6 km
Apogee alt
475.8 km
Semi-major
6,853.3 km
B*
4.7808e-4
RAAN
225.2493°
Arg perigee
66.1597°
Mean anomaly
293.9497°
Rev number
6,086

§ Raw data

STARLINK-339221 63698U 25087B   26144.91559839  .00013830  00000+0  47808-3 0  99942 63698  53.1565 225.2493 0000899  66.1597 293.9497 15.30208531 60867

JSON: /api/v1/satellites/63698 · /tle

For live sub-satellite position, see the globe view (requires WebGL).

§ Visibility from observer

Set your observer location to see the next 7 days of passes ≥ 10°. The values pass through the URL so the page stays shareable.

No JS? Fill the form by hand. The geolocation button needs JavaScript.